Content
SEND FEEDBACK

Daily
Averages
Monthly
Summary
Germany

BERLIN, GERMANY


Home > Europe > Germany
Elevation: 157 feet     Latitude: 52 23N     Longitude: 013 31E

WEATHER
 
SELECT A DAY
Number of Records: 252,620;   Date Range: 7/3/96 - 8/27/14
 
SHARE

PRINT THIS DATA

[ ← Previous Day ]
WEATHER ALMANAC - APRIL 25, 2014
[ Next Day → ]
[ °C ]   °F
Weather ElementAverageHighLow
Temperature60.4 °F70 °F (3:00 pm)50 °F (3:20 am)
Dewpoint48.4 °F53.6 °F (7:50 am)42.8 °F (7:50 pm)
Humidity66 %100 % (3:20 am)28 % (3:00 pm)
Barometer30.00 in30.08 in (1:00 am)29.92 in (6:50 pm)
Wind Speed10 mph17.9 mph (1:00 pm)
Weather ElementAverage
Visibility12.5 mi
Wind DirectionENE (63.9 °)

Weather ElementTotal
Precipitation---
Heating Degree Days5 (Base 65)
Growing Degree Days10 (Base 50)
Averaged from 71 records on April 25, 2014
WEATHER CONDITIONS BREAKOUT
WIND DIRECTION BREAKOUT
WEATHER BY HOUR - APRIL 25, 2014
[ °C ]   °F
Local TimeTemperatureDewpointHumidityBarometerVisibilityWind DirectionWind SpeedGust SpeedPrecipitationEventsConditions
12:20 AM53.6 °F50.0 °F88 %30.06 inNE (50°)4.6 mphClear
12:50 AM53.6 °F51.8 °F94 %30.06 inNNE (30°)6.9 mphClear
1:00 AM53.0 °F50.0 °F87 %30.08 in12.0 miNNE (30°)4.5 mphScattered Clouds
1:20 AM51.8 °F50.0 °F94 %30.06 inENE (60°)6.9 mphClear
1:50 AM51.8 °F50.0 °F94 %30.06 inNNE (30°)4.6 mphClear
2:00 AM52.0 °F49.0 °F88 %30.07 in12.0 miNE (50°)6.7 mphScattered Clouds
2:20 AM51.8 °F50.0 °F94 %30.04 inNE (50°)6.9 mphClear
2:50 AM51.8 °F50.0 °F94 %30.04 inENE (60°)4.6 mphClear
3:00 AM51.0 °F49.0 °F91 %30.06 in12.0 miENE (60°)6.7 mphScattered Clouds
3:20 AM50.0 °F50.0 °F100 %30.04 in6.2 miENE (70°)4.6 mphFogShallow Fog
3:50 AM51.8 °F51.8 °F100 %30.04 in4.3 miENE (60°)4.6 mphFogShallow Fog
4:00 AM51.0 °F50.0 °F96 %30.06 in4.0 miNE (50°)4.5 mphFogLight Fog
4:20 AM50.0 °F50.0 °F100 %30.04 in5.0 miNE (50°)5.8 mphFogFog
4:50 AM50.0 °F50.0 °F100 %30.04 in5.0 miENE (70°)8.1 mphFogShallow Fog
5:00 AM50.0 °F49.0 °F93 %30.05 in5.0 miENE (70°)6.7 mphFogPatches of Fog
5:20 AM50.0 °F50.0 °F100 %30.04 in5.0 miNE (50°)8.1 mphFogFog
5:50 AM50.0 °F50.0 °F100 %30.04 in5.6 miENE (60°)5.8 mphFogFog
6:00 AM50.0 °F49.0 °F95 %30.04 in6.0 miNE (50°)4.5 mphFogPatches of Fog
6:20 AM50.0 °F50.0 °F100 %30.04 in5.0 miNE (50°)6.9 mphFogFog
6:50 AM51.8 °F51.8 °F100 %30.04 in5.0 miNE (50°)6.9 mphFogFog
7:00 AM52.0 °F51.0 °F95 %30.04 in5.0 miNE (40°)6.7 mphFogPatches of Fog
7:20 AM53.6 °F51.8 °F94 %30.04 inENE (60°)8.1 mphClear
7:50 AM55.4 °F53.6 °F94 %30.04 inENE (70°)9.2 mphClear
8:00 AM55.0 °F52.0 °F87 %30.04 in11.0 miENE (70°)8.9 mphPartly Cloudy
8:20 AM57.2 °F51.8 °F82 %30.04 inEast (80°)11.5 mphClear
8:50 AM59.0 °F53.6 °F82 %30.04 inENE (70°)10.4 mphClear
9:00 AM58.0 °F53.0 °F76 %30.04 in12.0 miEast (80°)8.9 mphScattered Clouds
9:20 AM59.0 °F51.8 °F77 %30.04 inEast (80°)10.4 mphClear
9:50 AM60.8 °F53.6 °F77 %30.04 inENE (70°)10.4 mphClear
10:00 AM62.0 °F51.0 °F59 %30.04 in16.0 miEast (80°)8.9 mph
10:20 AM64.4 °F51.8 °F64 %30.01 inEast (90°)10.4 mphClear
10:50 AM64.4 °F51.8 °F64 %30.01 inEast (80°)11.5 mphClear
11:00 AM65.0 °F50.0 °F48 %30.03 in17.0 miEast (90°)13.4 mphScattered Clouds
11:20 AM66.2 °F51.8 °F60 %30.01 inENE (70°)11.5 mphClear
11:50 AM68.0 °F51.8 °F56 %30.01 in6.2 miEast (80°)13.8 mphPartly Cloudy
12:00 PM68.0 °F51.0 °F43 %30.01 in19.0 miEast (80°)13.4 mphScattered Clouds
12:20 PM68.0 °F48.2 °F49 %30.01 in6.2 miEast (90°)15.0 mphPartly Cloudy
12:50 PM69.8 °F48.2 °F46 %30.01 in6.2 miEast (80°)16.1 mphPartly Cloudy
1:00 PM69.0 °F47.0 °F34 %30.00 in22.0 miEast (90°)17.9 mphScattered Clouds
1:20 PM69.8 °F48.2 °F46 %29.98 in6.2 miEast (90°)16.1 mphPartly Cloudy
1:50 PM69.8 °F46.4 °F43 %29.98 inEast (90°)13.8 mphClear
2:00 PM69.0 °F47.0 °F34 %29.99 in22.0 miENE (70°)15.7 mphScattered Clouds
2:20 PM69.8 °F46.4 °F43 %29.98 inENE (60°)17.3 mphClear
2:50 PM69.8 °F44.6 °F40 %29.98 inEast (80°)15.0 mphClear
3:00 PM70.0 °F44.0 °F28 %29.97 in22.0 miENE (70°)13.4 mphScattered Clouds
3:20 PM69.8 °F46.4 °F43 %29.95 inENE (70°)15.0 mphClear
3:50 PM69.8 °F46.4 °F43 %29.95 inENE (70°)13.8 mphClear
4:00 PM70.0 °F44.0 °F28 %29.96 in22.0 miEast (80°)13.4 mphScattered Clouds
4:20 PM69.8 °F44.6 °F40 %29.95 inENE (70°)13.8 mphClear
4:50 PM69.8 °F46.4 °F43 %29.95 inENE (60°)16.1 mphClear
5:00 PM70.0 °F46.0 °F31 %29.95 in22.0 miENE (70°)11.2 mphScattered Clouds
5:20 PM69.8 °F46.4 °F43 %29.95 inENE (60°)15.0 mphClear
5:50 PM69.8 °F44.6 °F40 %29.95 inENE (60°)13.8 mphClear
6:00 PM69.0 °F45.0 °F30 %29.95 in25.0 miENE (70°)11.2 mphScattered Clouds
6:20 PM68.0 °F46.4 °F46 %29.95 inENE (60°)13.8 mphClear
6:50 PM68.0 °F44.6 °F43 %29.92 inENE (60°)13.8 mphClear
7:00 PM68.0 °F43.0 °F29 %29.94 in25.0 miENE (70°)11.2 mphScattered Clouds
7:20 PM66.2 °F44.6 °F46 %29.92 inENE (60°)11.5 mphClear
7:50 PM64.4 °F42.8 °F45 %29.92 inENE (60°)11.5 mphClear
8:00 PM65.0 °F43.0 °F33 %29.94 in22.0 miENE (60°)8.9 mphScattered Clouds
8:20 PM62.6 °F44.6 °F52 %29.95 inENE (60°)10.4 mphClear
8:50 PM62.6 °F44.6 °F52 %29.95 inENE (60°)10.4 mphClear
9:00 PM62.0 °F44.0 °F40 %29.95 in22.0 miENE (70°)8.9 mphScattered Clouds
9:20 PM59.0 °F46.4 °F63 %29.95 inENE (70°)10.4 mphClear
9:50 PM59.0 °F48.2 °F67 %29.95 inENE (70°)8.1 mphClear
10:00 PM59.0 °F47.0 °F53 %29.96 in19.0 miENE (70°)6.7 mphScattered Clouds
10:20 PM59.0 °F46.4 °F63 %29.95 inNNE (20°)5.8 mphClear
10:50 PM55.4 °F46.4 °F72 %29.95 inNE (40°)6.9 mphClear
11:00 PM56.0 °F46.0 °F61 %29.95 in17.0 miNE (40°)6.7 mphPartly Cloudy
11:20 PM55.4 °F46.4 °F72 %29.95 inNE (50°)8.1 mphClear
11:50 PM53.6 °F48.2 °F82 %29.95 inNE (50°)6.9 mphClear
Hourly data recorded from EDDB, located miles away from Berlin, Germany







STORIES FROM OUR PARTNERS